Probability
0 0 0 0 0 0 0 0 0 0 0 0 0 0 0 0 0 1 1 0 0 0 0 0 0 0 0 0 0 0 0 0 0 0 0 0 0 0 0 0 0 0 0
0 0 0 0 0 0 0 0 0 0 0 0 0 0 0 0 0 1 1 0 0 0 0 0 0 0 0 0 0 0 0 0 0 0 0 0 0 0 0 0 0 0 0
0 0 0 0 0 0 0 0 0 0 0 0 0 0 0 0 0 1 1 0 0 0 0 0 0 0 0 0 0 0 0 0 0 0 0 0 0 0 0 0 0 0 0
0 0 0 0 0 0 0 0 0 0 0 0 0 0 0 0 0 0 0 0 0 0 0 0 0 0 0 0 0 0 0 0 0 0 0 0 0 0 0 0 0 0 0
0 0 0 0 0 0 0 0 0 0 0 0 0 0 0 0 0 0 0 0 0 0 0 0 0 0 0 0 0 0 0 0 0 0 0 0 0 0 0 0 0 0 0
0 0 0 0 0 0 0 0 0 0 0 0 0 0 0 0 0 0 0 0 0 0 0 0 0 0 0 0 0 0 0 0 0 0 0 0 0 0 0 0 0 0 0
0 0 0 0 0 0 0 0 0 0 0 0 0 0 0 0 0 0 0 0 0 0 0 0 0 0 0 0 0 0 0 0 0 0 0 0 0 0 0 0 0 0 0
0 0 0 0 0 0 0 0 0 0 0 0 0 0 0 0 0 0 0 0 0 0 0 0 0 0 0 0 0 0 0 0 0 0 0 0 0 0 0 0 0 0 0
0 0 0 0 0 0 0 0 0 0 0 0 0 0 0 0 0 0 0 0 0 0 0 0 0 0 0 0 0 0 0 0 0 0 0 0 0 0 0 0 0 0 0
0 0 0 0 0 0 0 0 0 0 0 0 0 0 0 0 0 0 0 0 0 0 0 0 0 0 0 0 0 0 0 0 0 0 0 0 0 0 0 0 0 0 0
0 0 0 0 0 0 0 0 0 0 0 0 0 0 0 0 0 0 0 0 0 0 0 0 0 0 0 0 0 0 0 0 0 0 0 0 0 0 0 0 0 0 0
0 0 0 0 0 0 0 0 0 0 0 0 0 0 0 0 0 0 0 0 0 0 0 0 0 0 0 0 0 0 0 0 0 0 0 0 0 0 0 0 0 0 0
0 0 0 0 0 0 0 0 0 0 0 0 0 0 0 0 0 0 0 0 0 0 0 0 0 0 0 0 0 0 0 0 0 0 0 0 0 0 0 0 0 0 0
0 0 0 0 0 0 0 0 0 0 0 0 0 0 0 0 0 0 0 0 0 0 0 0 0 0 0 0 0 0 0 0 0 0 0 0 0 0 0 0 0 0 0
0 0 0 0 0 0 0 0 0 0 0 0 0 0 0 0 0 0 0 0 0 0 0 0 0 0 0 0 0 0 0 0 0 0 0 0 0 0 0 0 0 0 0
0 0 0 0 0 0 0 0 0 0 0 0 0 0 0 0 0 0 0 0 0 0 0 0 0 0 0 0 0 0 0 0 0 0 0 0 0 0 0 0 0 0 0
0 0 0 0 0 0 0 0 0 0 0 0 0 0 0 0 0 0 0 0 0 0 0 0 0 0 0 0 0 0 0 0 0 0 0 0 0 0 0 0 0 0 0
0 0 0 0 0 0 0 0 0 0 0 0 0 0 0 0 0 0 0 0 0 0 0 0 0 0 0 0 0 0 0 0 0 0 0 0 0 0 0 0 0 0 0
0 0 0 0 0 0 0 0 0 0 0 0 0 0 0 0 0 0 0 0 0 0 0 0 0 0 0 0 0 0 0 0 0 0 0 0 0 0 0 0 0 0 0
0 0 0 0 0 0 0 0 0 0 0 0 0 0 0 0 0 0 0 0 0 0 0 0 0 0 0 0 0 0 0 0 0 0 0 0 0 0 0 0 0 0 0
0 0 0 0 0 0 0 0 0 0 0 0 0 0 0 0 0 0 0 0 0 0 0 0 0 0 0 0 0 0 0 0 0 0 0 0 0 0 0 0 0 0 0
0 0 0 0 0 0 0 0 0 0 0 0 0 0 0 0 0 0 0 0 0 0 0 0 0 0 0 0 0 0 0 0 0 0 0 0 0 0 0 0 0 0 0
0 0 0 0 0 0 0 0 0 0 0 0 0 0 0 0 0 0 0 0 0 0 0 0 0 0 0 0 0 0 0 0 0 0 0 0 0 0 0 0 0 0 0
0 0 0 0 0 0 0 0 0 0 0 0 0 0 0 0 0 0 0 0 0 0 0 0 0 0 0 0 0 0 0 0 0 0 0 0 0 0 0 0 0 0 0
0 0 0 0 0 0 0 0 0 0 0 0 0 0 0 0 0 0 0 0 0 0 0 0 0 0 0 0 0 0 0 0 0 0 0 0 0 0 0 0 0 0 0
0 0 0 0 0 0 0 0 0 0 0 0 0 0 0 0 0 0 0 0 0 0 0 0 0 0 0 0 0 0 0 0 0 0 0 0 0 0 0 0 0 0 0
Wind_Speed
5 5 5 5 5 5 5 6 6 5 6 7 7 6 6 6 5 4 4 3 4 4 4 6 7 6 6 6 5 5 5 4 4 3 2 2 4 4 3 2 3 3 3
5 5 5 5 5 6 6 6 5 5 5 5 5 5 5 4 4 5 5 5 5 6 7 7 7 6 7 6 6 7 6 5 5 5 3 3 3 4 4 3 2 2 2
5 6 5 5 6 7 7 6 5 5 5 4 5 5 5 5 6 6 6 6 7 8 8 9 8 8 9 7 8 7 6 5 4 5 5 3 2 3 3 2 2 2 1
5 6 6 7 8 7 7 6 6 5 5 5 5 5 5 5 6 6 7 7 7 8 8 8 8 10 11 10 9 9 7 6 5 6 5 4 3 3 3 3 2 1 1
5 6 7 6 6 6 6 6 6 6 6 5 5 4 4 4 4 6 6 7 8 8 8 8 9 12 14 11 9 9 9 8 7 6 5 4 4 5 6 4 4 2 0
6 6 5 5 5 6 6 6 6 6 5 5 5 5 4 3 5 7 7 6 7 8 8 7 8 11 14 17 16 15 15 13 11 8 6 7 8 7 6 5 5 4 3
6 6 5 6 6 6 5 6 6 6 5 5 5 5 4 4 7 7 8 6 7 7 7 5 5 7 10 8 13 16 17 19 18 12 10 9 10 11 11 9 7 5 4
6 6 6 6 6 6 5 6 6 5 5 5 5 5 4 5 6 6 6 4 5 6 6 6 6 5 6 8 7 8 9 11 14 12 11 9 7 9 10 9 8 6 4
5 6 5 6 6 6 7 7 5 5 5 4 4 4 4 4 5 6 4 2 3 4 4 5 6 5 7 9 7 8 8 7 10 10 7 8 11 16 14 9 9 6 3
3 4 4 5 7 7 7 5 4 4 5 5 4 3 3 4 5 5 3 1 2 2 1 2 5 6 7 9 6 6 7 6 5 7 7 9 10 15 21 14 11 8 4
2 2 2 3 5 5 4 4 4 4 4 4 3 2 3 4 4 5 5 3 3 2 2 2 2 6 7 7 6 3 3 2 4 5 6 6 6 7 11 9 9 8 7
3 3 3 1 1 3 4 4 4 5 4 3 2 1 1 2 3 4 5 7 5 3 3 2 2 3 4 4 4 3 3 4 3 4 5 6 6 7 7 8 7 5 4
4 4 4 4 3 1 3 4 4 4 3 2 1 1 2 1 2 4 5 7 7 3 2 3 3 2 3 2 2 2 4 3 3 3 4 5 4 4 5 5 6 5 4
3 3 4 4 4 4 2 2 3 3 3 3 2 2 2 2 2 2 1 2 4 3 2 3 5 5 3 3 2 2 2 3 3 3 2 2 3 4 5 5 5 5 4
2 2 3 3 3 4 4 3 2 1 2 3 2 2 2 3 3 4 3 3 4 4 5 3 2 2 1 1 1 1 1 2 2 2 2 3 3 4 4 5 5 5 6
1 1 2 2 2 3 3 4 7 5 4 2 1 2 2 3 4 2 5 6 9 11 5 3 2 2 2 2 2 2 2 2 2 3 3 3 4 6 6 5 5 6 7
2 1 1 1 1 2 2 2 2 4 8 9 7 4 3 4 4 2 5 8 10 9 3 3 3 3 3 3 2 2 2 2 2 3 3 3 4 5 6 7 7 6 6
2 2 2 1 1 1 1 2 2 2 1 2 5 7 7 6 6 6 9 7 4 3 1 2 2 2 2 3 3 2 2 2 2 3 3 3 3 4 5 6 8 7 6
3 2 2 2 1 1 2 2 2 2 2 1 2 3 6 6 6 6 4 2 2 1 1 1 1 2 2 2 3 3 3 3 3 3 3 3 3 3 4 5 6 8 6
2 5 4 2 2 2 2 2 2 2 2 2 2 1 1 2 2 2 2 2 1 0 1 2 2 2 3 3 3 3 3 3 3 3 3 3 3 3 4 5 5 6 5
2 3 5 3 2 2 2 3 3 3 3 2 1 1 2 1 1 0 0 1 1 1 1 2 2 2 3 3 3 3 4 3 4 4 3 3 4 3 3 4 4 4 4
3 2 2 2 2 2 3 3 3 3 3 3 2 1 2 1 1 1 1 1 2 2 1 2 2 2 3 3 3 3 4 4 4 4 4 4 4 4 4 3 3 3 4
3 3 2 2 2 3 3 3 3 3 2 2 2 2 1 0 1 1 1 1 1 1 1 1 2 2 2 3 3 3 4 4 4 5 5 5 4 4 4 5 5 5 5
4 3 3 2 2 3 3 3 3 3 3 2 2 2 1 1 1 2 2 1 1 1 1 1 2 3 4 3 3 3 4 4 4 4 6 6 5 5 5 5 5 6 5
4 3 3 3 3 3 3 3 2 2 2 2 2 2 2 2 2 2 2 2 3 3 3 3 2 3 4 5 4 4 5 7 6 4 4 5 5 6 5 5 5 5 5
4 4 3 3 3 3 3 2 2 2 2 2 2 2 2 2 2 2 3 3 3 3 3 3 4 4 5 4 5 6 6 6 6 6 4 3 5 5 5 5 6 6 6
Wind_Direction
203 200 193 189 185 181 187 194 191 187 184 180 180 179 183 187 191 207 225 201 206 221 210 205 213 193 191 194 192 190 185 161 155 141 121 134 147 151 117 80 59 37 14
198 198 202 189 179 184 194 197 194 196 196 191 188 191 193 193 193 206 225 221 214 229 230 217 220 200 200 194 194 197 191 172 149 157 148 143 155 153 134 122 88 66 12
189 195 200 193 190 196 198 192 189 191 192 189 188 198 202 200 201 208 218 223 221 228 228 221 217 198 205 200 197 197 189 178 145 144 149 136 132 141 128 113 91 40 8
192 195 201 202 201 201 195 188 189 187 188 194 202 209 211 210 209 210 214 221 228 234 227 220 213 204 206 200 198 193 178 168 150 143 146 147 140 134 138 149 148 112 53
196 204 211 207 199 192 187 186 184 186 193 194 199 205 204 204 214 214 215 221 225 233 227 216 214 212 209 200 195 189 178 175 165 158 155 154 162 165 187 165 150 133 211
206 216 208 194 192 191 187 177 175 181 185 183 191 194 199 210 227 231 223 224 227 230 229 218 213 216 217 211 208 197 188 183 183 176 170 180 190 184 155 157 140 146 208
214 220 203 194 197 198 185 177 183 185 181 182 188 189 206 231 249 258 248 227 224 227 226 215 212 210 208 204 212 209 205 203 195 184 186 191 184 184 169 166 168 160 182
216 222 213 202 205 200 193 196 192 181 182 185 187 190 206 243 262 277 281 249 232 231 223 213 210 201 193 196 195 200 203 207 204 199 202 200 185 173 175 172 151 119 91
232 233 227 215 213 205 206 207 193 180 182 182 182 187 208 255 279 286 273 242 246 246 229 213 201 191 193 189 189 202 207 214 212 203 189 172 166 166 158 139 145 148 169
266 256 237 222 221 220 216 200 183 180 180 173 178 189 211 246 272 280 229 188 243 252 226 203 190 173 166 171 179 196 214 212 188 189 173 167 166 173 173 173 168 167 156
320 303 264 231 225 221 202 176 169 167 162 163 175 198 222 242 271 283 222 185 204 213 212 202 195 172 159 164 164 179 214 183 175 176 167 162 165 176 184 185 180 172 169
35 34 19 360 235 188 174 167 160 158 159 163 166 254 259 262 268 282 249 210 194 193 211 204 198 183 163 156 160 180 193 154 154 168 179 186 189 190 189 185 181 175 158
35 31 25 31 35 98 157 154 144 151 151 150 149 272 289 288 287 293 274 223 201 189 202 187 172 166 147 134 140 147 150 148 161 181 198 203 191 176 159 156 160 152 123
24 23 28 40 44 52 76 126 144 157 150 148 169 236 268 278 270 271 274 202 178 152 113 107 98 102 102 110 104 113 134 160 173 191 193 179 153 159 164 157 158 157 151
23 32 44 51 61 64 63 58 84 112 150 161 192 207 222 253 254 225 195 177 159 145 122 90 82 96 125 149 151 162 172 173 186 180 178 172 173 174 170 162 154 157 177
97 42 48 62 71 82 89 77 57 59 70 104 157 182 234 267 296 262 201 174 153 146 126 136 155 171 194 205 210 215 217 216 210 201 202 199 197 195 186 174 171 179 190
169 166 108 89 99 101 99 104 93 54 54 54 48 47 39 23 30 85 136 146 151 149 125 150 173 190 203 212 218 224 233 234 217 215 219 217 212 206 194 190 187 185 188
152 147 134 127 132 138 142 142 139 135 89 44 41 51 57 57 64 93 116 116 133 144 130 161 189 200 205 212 218 228 243 247 232 228 221 214 207 205 202 196 192 186 177
144 130 121 118 123 133 137 139 144 146 133 111 92 68 66 68 74 86 82 69 115 173 192 205 216 216 215 216 219 224 230 232 229 223 221 214 203 193 196 195 187 176 164
150 148 136 125 111 105 109 116 122 129 129 124 116 98 76 60 65 53 35 34 38 342 239 238 239 231 222 216 213 211 217 224 224 221 218 211 203 197 194 188 181 176 175
140 131 125 112 104 106 108 112 118 123 127 126 128 163 146 101 102 66 334 320 309 296 274 254 251 248 237 226 218 218 220 225 220 215 212 207 200 201 197 187 181 166 147
139 128 123 125 115 103 104 107 112 117 126 126 115 117 153 95 65 8 335 317 300 284 267 248 246 242 234 229 226 225 226 229 224 215 213 208 203 201 194 189 178 163 160
141 137 127 120 117 115 103 97 100 104 109 115 120 112 116 53 9 347 326 312 302 294 284 261 261 262 251 240 233 231 236 236 226 213 209 209 205 201 193 193 187 176 179
146 145 141 131 120 117 112 105 100 100 103 107 107 102 87 33 6 353 345 334 328 320 310 294 283 286 284 270 249 240 242 245 235 220 209 207 205 203 197 197 193 189 182
142 142 141 138 131 126 119 112 107 106 105 102 95 84 67 48 28 14 8 1 355 347 341 333 313 302 298 292 282 268 260 256 249 234 211 205 202 200 196 194 190 185 185
140 139 132 125 123 125 124 121 116 114 107 96 84 76 69 56 37 21 11 4 357 353 353 350 348 349 346 333 325 320 306 284 261 237 214 199 196 195 191 194 195 195 196